Language: 


Des rapports , des résumés tant et plus, au choix de chacun....


Données Historiques de Météogheer
 
Journalier Rapport pour Juin 23, 2018 Unitée:  Métrique    Impériale   Les deux
Suivant Jour »
Journalier Hebdomadaire Mensuel Annuel Sur mesure
  Actuel: Max: Min: Moyenne:
Température: 24.2 °C 24.5 °C 5.2 °C 14.7 °C
Point de rosée: 8.0 °C 11.0 °C 3.0 °C 6.3 °C
Humidité: 34% 89% 31% 61%
Vent: 11.9km/h 13.7km/h 0.0km/h 2.3km/h
Rafales: 11.9km/h 17.2km/h - -
VentNNW - - West
Pression: 1025.0 hPa 1029.0 hPa 1025.0 hPa -
Pluie: 0.0 mm      
Historical Graphs
 
 
Données tabulaires pour Juin 23, 2018
Heure Température Point de rosée Pression Vent Vent Rafales Humidité Pluie Taux (Horaire) Conditions
00:00 10.1 °C 5.0 °C 1029.0 hPa Calm   6.1 km/h 71% 0.0 mm
00:05 9.9 °C 5.0 °C 1029.0 hPa Calm   4.0 km/h 71% 0.0 mm
00:10 9.7 °C 5.0 °C 1029.0 hPa Calm   3.2 km/h 72% 0.0 mm
00:15 9.6 °C 5.0 °C 1029.0 hPa Calm   3.2 km/h 72% 0.0 mm
00:20 9.4 °C 5.0 °C 1029.0 hPa Calm     72% 0.0 mm
00:25 9.2 °C 5.0 °C 1029.0 hPa Calm   5.8 km/h 72% 0.0 mm
00:30 9.1 °C 5.0 °C 1029.0 hPa Calm   5.8 km/h 73% 0.0 mm
00:35 9.0 °C 5.0 °C 1029.0 hPa WNW 1.8 km/h 1.8 km/h 73% 0.0 mm
00:40 8.9 °C 5.0 °C 1029.0 hPa Calm   1.8 km/h 73% 0.0 mm
00:45 8.7 °C 5.0 °C 1029.0 hPa Calm   1.8 km/h 74% 0.0 mm
00:50 8.6 °C 5.0 °C 1029.0 hPa Calm     74% 0.0 mm
00:55 8.3 °C 4.0 °C 1029.0 hPa Calm     74% 0.0 mm
01:00 8.1 °C 4.0 °C 1029.0 hPa Calm     74% 0.0 mm
01:05 8.0 °C 4.0 °C 1029.0 hPa Calm     75% 0.0 mm
01:10 7.7 °C 4.0 °C 1029.0 hPa Calm     75% 0.0 mm
01:15 7.6 °C 4.0 °C 1029.0 hPa Calm     75% 0.0 mm
01:20 7.4 °C 3.0 °C 1029.0 hPa Calm     75% 0.0 mm
01:25 7.4 °C 3.0 °C 1029.0 hPa Calm     76% 0.0 mm
01:30 7.3 °C 4.0 °C 1029.0 hPa Calm     78% 0.0 mm
01:35 7.2 °C 3.0 °C 1029.0 hPa Calm     76% 0.0 mm
01:40 7.0 °C 3.0 °C 1029.0 hPa Calm     76% 0.0 mm
01:45 6.9 °C 3.0 °C 1029.0 hPa Calm     78% 0.0 mm
01:50 6.8 °C 3.0 °C 1029.0 hPa Calm     78% 0.0 mm
01:55 6.6 °C 3.0 °C 1028.0 hPa Calm   3.5 km/h 78% 0.0 mm
02:00 6.5 °C 3.0 °C 1028.0 hPa Calm   3.5 km/h 78% 0.0 mm
02:05 6.5 °C 3.0 °C 1028.0 hPa Calm     79% 0.0 mm
02:10 6.4 °C 3.0 °C 1029.0 hPa Calm     80% 0.0 mm
02:15 6.4 °C 3.0 °C 1029.0 hPa Calm   2.6 km/h 81% 0.0 mm
02:20 6.3 °C 3.0 °C 1029.0 hPa Calm   2.6 km/h 81% 0.0 mm
02:25 6.3 °C 3.0 °C 1029.0 hPa Calm     81% 0.0 mm
02:30 6.4 °C 4.0 °C 1029.0 hPa Calm     83% 0.0 mm
02:35 6.5 °C 4.0 °C 1029.0 hPa Calm     83% 0.0 mm
02:40 6.6 °C 4.0 °C 1029.0 hPa Calm     83% 0.0 mm
02:45 6.5 °C 4.0 °C 1029.0 hPa Calm     83% 0.0 mm
02:50 6.5 °C 4.0 °C 1029.0 hPa Calm     82% 0.0 mm
02:55 6.4 °C 4.0 °C 1029.0 hPa Calm     82% 0.0 mm
03:00 6.2 °C 3.0 °C 1029.0 hPa Calm     81% 0.0 mm
03:05 6.0 °C 3.0 °C 1029.0 hPa Calm     81% 0.0 mm
03:10 5.9 °C 3.0 °C 1029.0 hPa Calm     81% 0.0 mm
03:15 5.7 °C 3.0 °C 1029.0 hPa Calm     81% 0.0 mm
03:20 5.6 °C 3.0 °C 1029.0 hPa Calm     81% 0.0 mm
03:25 5.5 °C 3.0 °C 1029.0 hPa Calm     81% 0.0 mm
03:30 5.6 °C 3.0 °C 1029.0 hPa Calm     81% 0.0 mm
03:35 5.7 °C 3.0 °C 1029.0 hPa Calm     83% 0.0 mm
03:40 5.7 °C 3.0 °C 1029.0 hPa Calm     83% 0.0 mm
03:45 5.7 °C 3.0 °C 1029.0 hPa Calm     83% 0.0 mm
03:50 5.6 °C 3.0 °C 1029.0 hPa Calm     82% 0.0 mm
03:55 5.6 °C 3.0 °C 1029.0 hPa Calm     82% 0.0 mm
04:00 5.7 °C 3.0 °C 1029.0 hPa Calm     83% 0.0 mm
04:05 5.7 °C 3.0 °C 1029.0 hPa Calm     84% 0.0 mm
04:10 5.8 °C 4.0 °C 1029.0 hPa Calm     84% 0.0 mm
04:15 5.8 °C 4.0 °C 1029.0 hPa Calm     84% 0.0 mm
04:20 5.7 °C 3.0 °C 1029.0 hPa Calm     83% 0.0 mm
04:25 5.7 °C 3.0 °C 1028.0 hPa Calm     83% 0.0 mm
04:30 5.6 °C 3.0 °C 1028.0 hPa Calm     83% 0.0 mm
04:35 5.7 °C 3.0 °C 1028.0 hPa Calm     84% 0.0 mm
04:40 5.6 °C 3.0 °C 1028.0 hPa Calm     84% 0.0 mm
04:45 5.6 °C 3.0 °C 1028.0 hPa Calm     83% 0.0 mm
04:50 5.5 °C 3.0 °C 1028.0 hPa Calm     84% 0.0 mm
04:55 5.5 °C 3.0 °C 1028.0 hPa Calm   4.0 km/h 84% 0.0 mm
05:00 5.6 °C 4.0 °C 1028.0 hPa Calm   4.0 km/h 86% 0.0 mm
05:05 5.7 °C 4.0 °C 1028.0 hPa Calm   1.8 km/h 87% 0.0 mm
05:10 5.7 °C 4.0 °C 1028.0 hPa Calm   1.8 km/h 88% 0.0 mm
05:15 5.7 °C 4.0 °C 1028.0 hPa Calm     88% 0.0 mm
05:20 5.6 °C 4.0 °C 1028.0 hPa Calm     87% 0.0 mm
05:25 5.6 °C 4.0 °C 1028.0 hPa WSW 3.2 km/h 3.2 km/h 87% 0.0 mm
05:30 5.5 °C 4.0 °C 1028.0 hPa Calm   3.2 km/h 86% 0.0 mm
05:35 5.5 °C 4.0 °C 1028.0 hPa Calm   4.3 km/h 86% 0.0 mm
05:40 5.5 °C 4.0 °C 1029.0 hPa Calm   4.3 km/h 86% 0.0 mm
05:45 5.4 °C 3.0 °C 1029.0 hPa Calm     86% 0.0 mm
05:50 5.4 °C 3.0 °C 1029.0 hPa Calm     84% 0.0 mm
05:55 5.3 °C 3.0 °C 1029.0 hPa Calm     84% 0.0 mm
06:00 5.2 °C 3.0 °C 1029.0 hPa Calm     84% 0.0 mm
06:05 5.2 °C 3.0 °C 1029.0 hPa Calm   2.1 km/h 86% 0.0 mm
06:10 5.3 °C 3.0 °C 1029.0 hPa Calm   2.1 km/h 86% 0.0 mm
06:15 5.5 °C 4.0 °C 1029.0 hPa Calm     87% 0.0 mm
06:20 5.6 °C 4.0 °C 1029.0 hPa Calm     87% 0.0 mm
06:25 5.8 °C 4.0 °C 1028.0 hPa Calm     88% 0.0 mm
06:30 6.0 °C 4.0 °C 1028.0 hPa Calm     88% 0.0 mm
06:35 6.2 °C 5.0 °C 1028.0 hPa Calm     88% 0.0 mm
06:40 6.4 °C 5.0 °C 1029.0 hPa Calm     88% 0.0 mm
06:45 6.6 °C 5.0 °C 1029.0 hPa Calm     89% 0.0 mm
06:50 6.9 °C 6.0 °C 1029.0 hPa Calm   3.5 km/h 89% 0.0 mm
06:55 7.2 °C 6.0 °C 1028.0 hPa Calm   3.5 km/h 88% 0.0 mm
07:00 7.5 °C 6.0 °C 1028.0 hPa Calm   3.2 km/h 88% 0.0 mm
07:05 7.9 °C 6.0 °C 1028.0 hPa Calm     88% 0.0 mm
07:10 8.3 °C 7.0 °C 1028.0 hPa Calm     88% 0.0 mm
07:15 8.5 °C 7.0 °C 1028.0 hPa Calm     88% 0.0 mm
07:20 8.8 °C 7.0 °C 1028.0 hPa SW 1.4 km/h 1.4 km/h 87% 0.0 mm
07:25 9.2 °C 7.0 °C 1028.0 hPa Calm   2.1 km/h 86% 0.0 mm
07:30 9.6 °C 7.0 °C 1028.0 hPa Calm   2.1 km/h 84% 0.0 mm
07:35 9.9 °C 8.0 °C 1028.0 hPa Calm     84% 0.0 mm
07:40 10.2 °C 8.0 °C 1028.0 hPa Calm     82% 0.0 mm
07:45 10.6 °C 8.0 °C 1028.0 hPa Calm   1.8 km/h 81% 0.0 mm
07:50 10.8 °C 8.0 °C 1028.0 hPa Calm   4.3 km/h 80% 0.0 mm
07:55 11.0 °C 8.0 °C 1028.0 hPa SSW 3.2 km/h 5.0 km/h 80% 0.0 mm
08:00 11.5 °C 9.0 °C 1028.0 hPa Calm   5.0 km/h 80% 0.0 mm
08:05 11.8 °C 8.0 °C 1028.0 hPa Calm   3.2 km/h 79% 0.0 mm
08:10 12.1 °C 8.0 °C 1028.0 hPa West 3.2 km/h 3.2 km/h 76% 0.0 mm
08:15 12.6 °C 9.0 °C 1028.0 hPa Calm   6.1 km/h 75% 0.0 mm
08:20 13.0 °C 9.0 °C 1028.0 hPa WSW 5.0 km/h 6.4 km/h 74% 0.0 mm
08:25 13.3 °C 9.0 °C 1029.0 hPa Calm   6.4 km/h 73% 0.0 mm
08:30 13.6 °C 9.0 °C 1029.0 hPa Calm   6.4 km/h 71% 0.0 mm
08:35 13.7 °C 9.0 °C 1029.0 hPa Calm   6.4 km/h 71% 0.0 mm
08:40 13.5 °C 9.0 °C 1029.0 hPa Calm   5.5 km/h 71% 0.0 mm
08:45 13.3 °C 9.0 °C 1029.0 hPa Calm     71% 0.0 mm
08:50 13.3 °C 9.0 °C 1029.0 hPa Calm     72% 0.0 mm
08:55 13.4 °C 9.0 °C 1028.0 hPa Calm     72% 0.0 mm
09:00 13.6 °C 9.0 °C 1028.0 hPa Calm     72% 0.0 mm
09:05 13.7 °C 9.0 °C 1028.0 hPa Calm   1.8 km/h 71% 0.0 mm
09:10 13.8 °C 9.0 °C 1028.0 hPa Calm   1.8 km/h 71% 0.0 mm
09:15 14.4 °C 10.0 °C 1028.0 hPa Calm     72% 0.0 mm
09:20 15.1 °C 10.0 °C 1028.0 hPa Calm   2.1 km/h 70% 0.0 mm
09:25 15.8 °C 10.0 °C 1028.0 hPa Calm   2.1 km/h 69% 0.0 mm
09:30 16.7 °C 11.0 °C 1028.0 hPa NNW 1.4 km/h 1.4 km/h 68% 0.0 mm
09:35 17.5 °C 11.0 °C 1028.0 hPa North 4.3 km/h 6.4 km/h 64% 0.0 mm
09:40 17.9 °C 10.0 °C 1029.0 hPa NW 5.5 km/h 10.1 km/h 61% 0.0 mm
09:45 18.1 °C 10.0 °C 1029.0 hPa NNW 4.3 km/h 10.8 km/h 58% 0.0 mm
09:50 18.4 °C 10.0 °C 1029.0 hPa NNE 4.0 km/h 10.8 km/h 57% 0.0 mm
09:55 18.7 °C 10.0 °C 1029.0 hPa North 2.6 km/h 10.5 km/h 56% 0.0 mm
10:00 19.1 °C 10.0 °C 1029.0 hPa NE 8.7 km/h 9.7 km/h 54% 0.0 mm
10:05 19.2 °C 10.0 °C 1029.0 hPa NE 4.3 km/h 9.7 km/h 53% 0.0 mm
10:10 19.4 °C 9.0 °C 1029.0 hPa NW 7.9 km/h 9.3 km/h 51% 0.0 mm
10:15 19.8 °C 9.0 °C 1029.0 hPa North 5.5 km/h 9.3 km/h 51% 0.0 mm
10:20 20.2 °C 10.0 °C 1029.0 hPa NNW 4.3 km/h 6.4 km/h 51% 0.0 mm
10:25 20.3 °C 9.0 °C 1028.0 hPa North 6.1 km/h 10.5 km/h 47% 0.0 mm
10:30 20.5 °C 9.0 °C 1028.0 hPa Calm   10.5 km/h 48% 0.0 mm
10:35 20.7 °C 9.0 °C 1028.0 hPa NE 8.7 km/h 8.7 km/h 48% 0.0 mm
10:40 20.8 °C 9.0 °C 1027.0 hPa North 3.5 km/h 8.7 km/h 48% 0.0 mm
10:45 20.7 °C 9.0 °C 1027.0 hPa Calm   9.0 km/h 46% 0.0 mm
10:50 20.8 °C 9.0 °C 1027.0 hPa Calm   9.3 km/h 45% 0.0 mm
10:55 21.0 °C 9.0 °C 1027.0 hPa NNW 7.9 km/h 10.1 km/h 45% 0.0 mm
11:00 20.8 °C 9.0 °C 1027.0 hPa East 1.8 km/h 10.1 km/h 46% 0.0 mm
11:05 21.3 °C 9.0 °C 1027.0 hPa Calm   7.6 km/h 44% 0.0 mm
11:10 21.5 °C 9.0 °C 1027.0 hPa Calm   4.7 km/h 44% 0.0 mm
11:15 21.6 °C 9.0 °C 1027.0 hPa Calm   4.3 km/h 44% 0.0 mm
11:20 21.7 °C 9.0 °C 1027.0 hPa NW 2.1 km/h 6.1 km/h 43% 0.0 mm
11:25 21.9 °C 9.0 °C 1027.0 hPa SE 4.7 km/h 6.1 km/h 43% 0.0 mm
11:30 22.1 °C 9.0 °C 1027.0 hPa Calm   5.5 km/h 44% 0.0 mm
11:35 22.4 °C 9.0 °C 1027.0 hPa Calm   6.9 km/h 42% 0.0 mm
11:40 22.7 °C 9.0 °C 1027.0 hPa WSW 4.7 km/h 8.7 km/h 41% 0.0 mm
11:45 22.6 °C 8.0 °C 1027.0 hPa WNW 1.4 km/h 8.7 km/h 39% 0.0 mm
11:50 22.6 °C 8.0 °C 1027.0 hPa NNW 6.1 km/h 6.4 km/h 39% 0.0 mm
11:55 22.4 °C 8.0 °C 1027.0 hPa NW 6.4 km/h 10.1 km/h 40% 0.0 mm
12:00 22.5 °C 8.0 °C 1027.0 hPa Calm   10.1 km/h 39% 0.0 mm
12:05 22.7 °C 9.0 °C 1027.0 hPa NW 6.4 km/h 10.5 km/h 40% 0.0 mm
12:10 22.9 °C 9.0 °C 1027.0 hPa SSW 2.6 km/h 10.5 km/h 40% 0.0 mm
12:15 23.5 °C 9.0 °C 1027.0 hPa South 2.6 km/h 6.9 km/h 40% 0.0 mm
12:20 23.4 °C 8.0 °C 1027.0 hPa NNW 10.1 km/h 10.5 km/h 38% 0.0 mm
12:25 23.1 °C 7.0 °C 1027.0 hPa WSW 10.5 km/h 10.5 km/h 36% 0.0 mm
12:30 22.8 °C 7.0 °C 1027.0 hPa NNW 4.3 km/h 11.6 km/h 37% 0.0 mm
12:35 22.8 °C 7.0 °C 1027.0 hPa Calm   11.6 km/h 37% 0.0 mm
12:40 22.9 °C 8.0 °C 1027.0 hPa North 1.8 km/h 9.7 km/h 37% 0.0 mm
12:45 23.3 °C 8.0 °C 1027.0 hPa WNW 1.8 km/h 11.6 km/h 38% 0.0 mm
12:50 23.4 °C 8.0 °C 1027.0 hPa NW 5.5 km/h 11.6 km/h 36% 0.0 mm
12:55 23.4 °C 8.0 °C 1027.0 hPa Calm   10.5 km/h 36% 0.0 mm
13:00 23.7 °C 8.0 °C 1027.0 hPa West 5.8 km/h 5.8 km/h 37% 0.0 mm
13:05 23.7 °C 7.0 °C 1027.0 hPa Calm   10.1 km/h 35% 0.0 mm
13:10 24.0 °C 8.0 °C 1027.0 hPa Calm   10.1 km/h 36% 0.0 mm
13:15 23.8 °C 7.0 °C 1027.0 hPa West 10.1 km/h 11.9 km/h 34% 0.0 mm
13:20 23.5 °C 7.0 °C 1027.0 hPa Calm   11.9 km/h 34% 0.0 mm
13:25 23.3 °C 7.0 °C 1026.0 hPa SSW 4.0 km/h 10.8 km/h 34% 0.0 mm
13:30 23.3 °C 7.0 °C 1026.0 hPa WNW 7.9 km/h 11.9 km/h 35% 0.0 mm
13:35 23.0 °C 6.0 °C 1026.0 hPa WSW 5.0 km/h 12.6 km/h 34% 0.0 mm
13:40 23.0 °C 7.0 °C 1026.0 hPa NNW 6.4 km/h 12.6 km/h 35% 0.0 mm
13:45 23.8 °C 7.0 °C 1026.0 hPa SE 7.6 km/h 9.7 km/h 34% 0.0 mm
13:50 23.7 °C 7.0 °C 1026.0 hPa Calm   10.1 km/h 33% 0.0 mm
13:55 23.3 °C 7.0 °C 1027.0 hPa SW 13.7 km/h 13.7 km/h 34% 0.0 mm
14:00 22.7 °C 6.0 °C 1027.0 hPa West 10.1 km/h 15.8 km/h 35% 0.0 mm
14:05 23.0 °C 7.0 °C 1027.0 hPa WNW 4.0 km/h 15.8 km/h 36% 0.0 mm
14:10 23.4 °C 8.0 °C 1026.0 hPa Calm   6.9 km/h 36% 0.0 mm
14:15 23.2 °C 7.0 °C 1026.0 hPa WSW 9.0 km/h 14.0 km/h 34% 0.0 mm
14:20 23.0 °C 6.0 °C 1026.0 hPa NE 3.5 km/h 14.0 km/h 34% 0.0 mm
14:25 23.2 °C 6.0 °C 1026.0 hPa West 5.0 km/h 12.6 km/h 33% 0.0 mm
14:30 23.8 °C 7.0 °C 1026.0 hPa Calm   10.5 km/h 34% 0.0 mm
14:35 23.3 °C 6.0 °C 1026.0 hPa West 5.8 km/h 10.1 km/h 33% 0.0 mm
14:40 23.0 °C 6.0 °C 1027.0 hPa SSW 5.0 km/h 14.0 km/h 32% 0.0 mm
14:45 22.8 °C 6.0 °C 1027.0 hPa NW 4.7 km/h 14.0 km/h 35% 0.0 mm
14:50 23.9 °C 8.0 °C 1027.0 hPa SSW 4.7 km/h 11.6 km/h 35% 0.0 mm
14:55 23.6 °C 7.0 °C 1026.0 hPa WNW 1.8 km/h 11.6 km/h 35% 0.0 mm
15:00 23.8 °C 7.0 °C 1026.0 hPa WSW 7.9 km/h 11.6 km/h 34% 0.0 mm
15:05 24.0 °C 8.0 °C 1026.0 hPa WSW 6.4 km/h 12.2 km/h 35% 0.0 mm
15:10 24.5 °C 8.0 °C 1027.0 hPa SSW 6.9 km/h 12.2 km/h 35% 0.0 mm
15:15 24.3 °C 7.0 °C 1027.0 hPa WSW 5.8 km/h 13.7 km/h 33% 0.0 mm
15:20 24.4 °C 8.0 °C 1027.0 hPa West 9.7 km/h 14.0 km/h 35% 0.0 mm
15:25 24.2 °C 7.0 °C 1026.0 hPa WSW 6.9 km/h 17.2 km/h 33% 0.0 mm
15:30 23.5 °C 7.0 °C 1026.0 hPa West 6.4 km/h 17.2 km/h 34% 0.0 mm
15:35 23.4 °C 7.0 °C 1026.0 hPa West 10.5 km/h 15.8 km/h 34% 0.0 mm
15:40 23.5 °C 7.0 °C 1026.0 hPa West 4.0 km/h 12.6 km/h 34% 0.0 mm
15:45 23.2 °C 7.0 °C 1026.0 hPa WNW 5.0 km/h 16.3 km/h 35% 0.0 mm
15:50 23.2 °C 8.0 °C 1026.0 hPa WNW 9.0 km/h 16.3 km/h 36% 0.0 mm
15:55 23.4 °C 8.0 °C 1026.0 hPa NW 4.7 km/h 9.0 km/h 36% 0.0 mm
16:00 23.2 °C 7.0 °C 1026.0 hPa WSW 6.4 km/h 10.1 km/h 35% 0.0 mm
16:05 22.7 °C 6.0 °C 1026.0 hPa SW 10.1 km/h 10.1 km/h 35% 0.0 mm
16:10 22.6 °C 7.0 °C 1026.0 hPa West 8.7 km/h 13.7 km/h 37% 0.0 mm
16:15 22.7 °C 7.0 °C 1026.0 hPa SW 5.5 km/h 13.7 km/h 37% 0.0 mm
16:20 23.0 °C 7.0 °C 1026.0 hPa WSW 2.1 km/h 8.7 km/h 35% 0.0 mm
16:25 24.0 °C 8.0 °C 1026.0 hPa NW 4.7 km/h 8.7 km/h 36% 0.0 mm
16:30 24.1 °C 7.0 °C 1026.0 hPa West 6.4 km/h 11.6 km/h 34% 0.0 mm
16:35 24.1 °C 7.0 °C 1026.0 hPa West 1.8 km/h 12.2 km/h 33% 0.0 mm
16:40 24.2 °C 7.0 °C 1025.0 hPa NNW 6.1 km/h 12.2 km/h 32% 0.0 mm
16:45 24.2 °C 7.0 °C 1025.0 hPa NW 5.0 km/h 11.6 km/h 33% 0.0 mm
16:50 24.3 °C 7.0 °C 1025.0 hPa West 4.0 km/h 9.3 km/h 33% 0.0 mm
16:55 24.1 °C 6.0 °C 1025.0 hPa WSW 11.9 km/h 14.0 km/h 31% 0.0 mm
17:00 24.0 °C 6.0 °C 1025.0 hPa West 6.4 km/h 14.0 km/h 32% 0.0 mm
17:05 24.1 °C 6.0 °C 1025.0 hPa SSE 6.4 km/h 12.2 km/h 32% 0.0 mm
17:10 24.1 °C 7.0 °C 1025.0 hPa WNW 6.9 km/h 12.6 km/h 33% 0.0 mm
17:15 24.2 °C 7.0 °C 1025.0 hPa SSW 5.0 km/h 12.6 km/h 32% 0.0 mm
17:20 24.3 °C 7.0 °C 1025.0 hPa WNW 6.9 km/h 10.5 km/h 32% 0.0 mm
17:25 24.4 °C 8.0 °C 1025.0 hPa WNW 9.7 km/h 10.5 km/h 34% 0.0 mm
17:30 24.2 °C 8.0 °C 1025.0 hPa NNW 11.9 km/h 11.9 km/h 34% 0.0 mm
Données Historique de Météo Turbie

Mise a jour : 23/06/2018 17:27:12
Généré par Cumulus 1.9.4 (1099)